Temperature
21 20 20 21 26 30 30 30 31 31 31 30 30 30 30 30 29 27 22 22 21 21 20 21 20 20 20 20 20 20 20 20 20 20 20 20 20 19 19 19 19 19 19 19 18 18 18 18 18
20 20 21 25 29 30 30 30 30 30 30 30 30 30 30 28 25 23 22 21 21 21 20 20 20 20 20 20 20 20 20 20 20 20 20 20 20 19 19 19 19 19 19 19 19 19 19 19 19
20 20 24 28 29 30 30 30 30 30 30 30 30 29 28 26 23 23 22 21 21 20 20 20 21 20 20 20 20 20 20 20 20 20 20 20 19 19 19 19 19 19 19 19 19 19 19 19 19
21 23 26 29 30 30 30 30 30 31 30 30 30 29 26 22 22 22 21 21 21 20 20 20 20 20 20 20 20 20 20 20 20 20 20 19 19 19 19 19 19 19 19 19 19 19 19 19 19
22 26 29 30 30 30 30 30 30 31 30 30 30 29 25 21 21 21 21 21 21 21 20 20 20 20 20 20 20 20 20 20 20 20 20 19 19 19 19 19 19 19 19 19 19 19 19 19 19
26 28 29 30 30 30 31 30 30 30 30 29 29 29 24 21 21 21 21 21 21 21 20 19 20 20 20 20 20 20 20 20 20 19 19 19 19 19 19 19 19 18 18 18 18 18 19 18 18
27 29 29 30 29 30 30 29 30 30 29 29 28 28 24 21 20 20 20 20 21 20 20 19 19 19 19 19 19 20 19 19 19 19 19 19 19 19 19 18 18 18 18 18 18 18 18 18 18
26 29 29 30 29 30 30 29 29 29 29 27 27 28 25 20 20 20 20 20 20 20 19 18 18 18 19 19 19 19 19 19 19 19 19 19 18 18 18 18 18 18 18 18 18 18 18 18 18
24 28 29 30 29 30 30 29 29 28 28 26 25 25 24 21 20 20 19 19 19 19 19 18 18 18 18 18 18 19 19 19 19 19 18 18 18 18 18 18 18 18 18 18 18 18 18 18 18
26 28 29 29 29 30 29 29 29 29 28 26 24 22 21 20 20 20 20 19 19 18 18 18 18 18 18 18 18 18 18 18 18 18 18 18 18 18 18 17 18 18 18 18 18 18 18 18 17
27 28 29 29 28 28 29 28 28 29 28 26 24 22 21 21 20 20 20 19 19 18 18 18 18 18 18 18 18 18 18 18 18 18 18 18 18 18 17 17 17 17 17 17 17 17 17 17 17
27 28 27 28 27 28 28 28 27 26 25 23 22 21 21 21 21 20 19 19 18 18 19 18 18 18 18 18 18 18 18 18 18 18 18 18 18 17 17 17 17 17 17 17 17 17 17 17 17
27 28 27 27 27 27 27 27 25 24 22 22 21 20 20 21 20 20 19 19 18 18 18 18 18 18 18 18 18 17 17 17 17 18 18 18 17 17 17 17 17 17 17 17 17 17 17 17 17
28 27 27 27 27 26 27 26 25 23 22 21 21 20 20 20 19 19 19 18 18 18 18 18 18 18 18 18 18 18 17 17 17 17 17 17 17 17 17 17 17 17 17 16 17 16 17 17 17
27 28 28 28 27 27 27 26 24 22 21 21 20 20 19 19 19 19 19 18 18 18 18 18 18 18 18 18 17 17 17 17 17 17 17 17 17 17 17 17 17 16 16 16 16 16 16 16 16
28 28 29 28 27 27 27 26 23 21 22 21 20 19 19 19 19 18 18 18 18 18 18 18 18 18 18 18 17 17 17 17 17 16 16 16 16 16 16 16 16 16 16 16 16 16 16 16 16
29 29 28 28 27 27 27 25 23 22 22 21 20 20 19 19 18 18 18 18 18 18 18 18 18 17 17 17 17 17 17 17 16 16 16 16 16 16 16 15 15 16 15 15 15 16 16 16 16
28 28 28 27 27 26 26 25 23 22 22 21 20 20 19 19 18 18 18 18 18 18 18 18 18 18 17 17 17 16 16 16 16 16 16 16 16 15 15 15 15 15 15 15 15 15 15 15 15
28 28 27 27 26 26 25 24 23 22 22 21 20 20 19 19 18 18 18 18 18 17 18 17 17 18 17 17 17 16 16 16 16 15 15 15 15 15 15 15 14 14 14 14 14 14 14 15 15
27 27 27 26 25 25 24 23 23 22 22 21 21 20 20 19 18 18 18 18 17 17 17 17 17 17 17 17 17 16 16 16 15 15 15 15 14 14 14 14 14 14 14 14 14 14 14 14 14
28 27 27 26 25 25 24 24 23 22 21 21 20 20 20 19 19 18 18 18 18 17 17 17 17 17 17 17 16 16 16 15 15 15 15 14 14 14 14 13 13 13 13 14 13 13 13 14 14
27 27 27 26 25 25 25 24 24 23 23 22 21 20 20 20 19 19 19 18 18 18 17 17 17 17 16 16 16 15 15 15 15 14 14 14 13 13 13 13 13 13 13 13 13 13 13 13 14
27 26 26 26 26 26 25 25 25 24 23 23 23 21 21 20 20 20 19 19 18 18 17 17 17 16 16 16 15 15 15 15 14 14 13 13 13 12 12 12 12 12 12 12 12 12 12 13 13
26 26 26 26 27 25 25 25 25 25 24 24 23 22 21 21 20 20 19 19 18 18 17 17 16 16 16 15 15 15 14 14 13 13 13 13 13 13 12 12 11 11 12 11 11 12 12 12 12
27 27 26 26 26 25 25 25 25 25 25 25 24 23 22 21 21 20 20 19 18 18 17 17 16 16 15 15 14 14 13 13 13 12 13 12 13 13 12 11 11 11 11 11 11 11 11 11 12
27 27 26 25 25 26 25 25 26 25 24 24 23 23 22 21 21 20 20 19 18 18 17 16 16 15 15 14 14 13 13 13 13 12 12 12 12 12 11 10 10 10 10 10 11 11 11 11 11
27 27 27 27 26 26 26 26 26 25 24 24 23 23 22 22 21 20 20 19 18 18 17 16 15 15 14 14 13 13 12 12 12 11 11 11 11 11 10 10 10 10 10 10 10 10 10 11 11
28 28 27 27 25 26 26 26 26 25 25 25 24 24 23 22 21 20 19 18 18 17 16 16 15 14 14 13 13 12 12 11 11 11 10 10 10 10 10 9 9 9 9 9 9 10 10 10 10
27 27 27 27 26 26 26 26 27 27 26 26 25 24 23 22 21 20 19 18 17 17 16 15 14 14 13 13 12 12 11 11 10 10 10 10 9 9 9 9 9 9 9 9 9 9 9 9 10
27 27 27 26 26 26 26 27 27 27 27 26 25 24 23 22 21 20 19 18 17 16 16 15 14 14 13 12 12 11 11 10 10 10 10 9 9 9 9 9 9 9 9 8 8 9 9 9 9
Wind_Speed
11 8 5 4 5 4 5 6 8 9 6 5 5 3 4 6 5 4 6 14 16 18 21 21 18 17 16 15 15 15 15 15 15 14 14 13 13 12 11 10 9 8 7 7 7 7 8 8 9
8 5 5 4 5 2 5 7 10 10 7 4 1 2 4 6 7 7 10 14 17 18 20 20 19 17 16 15 15 14 14 14 14 13 13 12 12 11 10 9 9 8 7 7 6 7 7 8 8
7 6 5 4 3 3 4 8 10 9 5 2 2 4 4 5 5 6 10 16 18 17 18 19 20 17 16 15 15 14 13 13 12 12 11 11 10 10 9 8 8 7 7 6 6 6 7 7 8
5 5 4 6 3 2 4 8 9 7 4 2 2 6 6 6 3 7 14 17 18 17 17 20 19 17 16 15 14 14 13 12 11 11 10 10 9 9 8 7 7 6 6 6 6 6 7 7 7
6 5 7 7 4 1 3 7 8 7 4 2 2 6 6 6 7 11 14 16 17 16 16 20 18 17 16 15 14 13 13 12 11 10 9 9 8 8 7 7 6 6 5 6 6 6 6 7 7
5 5 8 7 2 1 2 6 7 6 4 3 3 6 6 6 9 12 13 14 14 14 15 18 17 16 15 14 14 13 12 12 11 10 9 8 8 7 7 6 6 6 6 6 6 6 7 7 7
7 6 8 7 5 3 3 7 7 7 4 4 2 5 7 8 10 11 12 12 13 13 13 14 16 15 14 13 13 12 12 11 11 10 10 9 8 7 7 6 7 7 7 7 6 6 7 8 7
5 6 8 7 5 3 3 6 6 6 3 3 2 3 7 10 12 12 11 11 11 10 10 11 12 12 13 13 12 11 11 10 10 10 9 9 9 9 9 9 9 8 8 8 8 8 8 8 9
4 7 7 5 5 4 5 8 6 4 1 3 4 5 10 16 15 13 12 11 10 9 8 8 9 9 9 10 12 12 11 10 10 10 10 10 9 9 10 10 7 8 9 9 9 9 10 10 11
5 7 4 4 7 8 9 9 7 3 1 4 7 10 14 15 14 13 12 13 12 11 9 7 7 7 7 6 8 8 9 9 9 7 8 8 7 7 7 4 6 8 10 11 12 11 11 12 12
5 6 6 6 7 9 9 8 5 5 1 2 4 10 12 12 12 11 10 10 10 10 8 7 6 5 5 4 4 4 4 5 6 6 6 6 6 6 6 5 6 8 11 11 10 11 11 11 10
6 6 7 8 9 9 8 6 3 5 5 5 6 9 11 11 10 10 10 9 9 9 7 6 5 5 4 3 3 3 3 3 4 5 6 6 4 4 5 5 6 6 7 7 8 7 9 10 11
8 7 6 7 7 6 4 1 2 5 6 6 9 10 9 9 8 8 8 8 8 7 7 6 4 4 3 3 2 2 2 3 3 3 4 4 4 4 4 4 5 7 7 7 7 8 8 9 11
5 7 8 7 4 2 1 2 2 5 5 8 9 9 8 8 8 8 8 7 7 7 7 6 5 4 3 2 2 1 2 1 2 2 2 3 4 4 4 5 6 7 7 7 8 8 8 8 8
7 9 6 2 1 1 3 4 4 5 6 8 9 9 9 8 7 7 7 7 7 6 6 6 5 4 3 2 1 1 0 1 1 1 1 2 2 2 4 4 5 5 6 7 7 8 8 7 9
8 8 5 3 1 1 6 2 6 4 6 8 9 9 8 8 7 7 6 6 6 6 6 6 5 6 4 3 1 1 1 1 1 1 1 1 1 2 3 3 4 4 5 5 5 6 7 7 8
7 5 4 2 2 1 3 2 6 5 6 7 7 8 8 7 7 6 6 6 6 6 6 5 5 5 4 4 3 2 2 1 1 0 0 0 1 2 3 3 3 4 4 4 6 5 6 7 8
7 8 5 3 2 1 2 4 6 5 5 6 6 7 7 7 6 6 5 6 6 6 6 5 5 4 4 4 3 2 2 1 1 1 1 1 1 2 4 3 3 5 5 5 5 5 6 7 7
8 9 6 2 1 0 2 4 6 5 5 5 5 5 6 6 6 6 5 6 6 6 6 6 5 4 3 2 1 1 1 1 1 1 0 1 2 3 4 5 3 5 5 6 7 7 7 7 6
8 8 4 1 1 1 3 4 4 4 4 4 5 6 7 7 7 6 6 6 6 6 5 5 5 4 3 2 1 0 1 2 2 2 1 2 3 4 4 4 6 5 5 7 7 7 7 6 5
6 6 4 2 3 3 3 4 5 5 5 5 5 5 7 7 7 7 6 5 6 6 5 4 4 4 3 2 2 1 2 3 3 3 3 3 4 4 5 5 6 6 8 7 6 7 8 7 6
5 2 2 4 5 1 3 1 5 6 7 7 7 7 7 7 7 6 6 6 6 6 5 5 5 4 3 3 3 3 3 4 4 4 4 4 5 5 6 6 6 7 8 7 8 7 7 8 8
1 1 3 4 4 2 2 2 4 6 7 8 9 9 9 8 7 7 6 6 6 5 5 5 4 3 2 2 2 4 5 5 5 5 5 6 5 5 6 6 7 7 8 8 8 8 9 9 9
4 5 5 6 6 2 1 2 3 5 6 8 9 10 9 8 7 7 6 6 5 5 4 4 4 3 2 2 2 3 4 5 6 7 7 7 6 5 6 7 7 8 8 8 9 9 10 9 9
6 6 5 4 3 1 2 2 2 5 6 7 9 10 9 8 8 7 7 6 5 5 4 3 3 3 2 2 2 3 4 5 6 7 6 7 7 6 5 7 7 8 8 9 9 9 10 10 10
4 7 6 6 5 1 3 1 4 6 6 6 7 8 8 8 7 7 6 6 5 5 4 3 3 2 1 1 2 3 4 5 5 5 7 8 8 8 7 8 9 9 9 10 9 10 11 10 10
3 4 4 5 4 3 1 2 4 7 8 9 9 9 9 8 7 7 6 6 5 4 3 2 2 1 1 1 2 3 4 5 6 6 8 8 7 8 8 9 10 10 10 10 10 10 10 10 11
3 2 3 4 4 3 1 1 2 8 9 10 10 10 9 8 8 7 7 6 4 4 4 2 1 1 1 2 3 4 4 5 6 7 8 8 9 9 10 10 10 10 11 11 11 11 11 11 11
3 3 3 3 4 5 2 2 3 5 7 9 9 9 9 8 8 8 7 6 5 4 3 2 1 1 2 3 4 5 6 6 7 7 8 8 9 9 10 10 10 11 11 11 10 12 12 12 12
4 3 4 4 2 3 4 2 7 5 6 7 8 8 9 8 8 8 7 6 5 4 3 2 2 2 3 4 5 6 6 7 8 9 9 9 9 10 10 10 11 11 11 11 11 12 12 12 13
Wind_Direction
181 193 224 248 249 222 71 50 18 7 3 10 4 8 27 26 6 52 120 148 148 148 146 153 155 155 152 148 145 146 148 150 152 153 153 154 155 154 153 151 149 146 140 128 119 114 111 111 113
178 195 233 251 270 210 84 34 13 3 355 340 30 51 63 63 52 97 135 146 151 148 150 157 154 155 152 149 146 145 146 148 150 152 154 155 156 157 157 157 156 154 147 137 132 127 123 122 124
184 226 262 263 272 325 33 18 1 358 7 359 81 59 53 59 80 115 136 150 152 150 152 149 155 156 154 151 149 148 147 148 150 152 154 156 159 161 163 165 164 161 154 148 146 141 136 133 134
205 226 241 254 260 16 355 355 351 356 25 41 116 98 88 52 55 116 141 152 152 154 154 148 158 157 156 154 152 151 150 151 152 154 157 161 164 169 171 172 172 168 166 161 159 155 150 145 144
237 257 250 244 251 351 357 355 352 357 11 55 117 109 90 60 82 122 145 154 157 156 151 150 159 159 159 158 157 155 155 156 158 160 163 167 172 177 181 182 182 181 180 177 172 169 164 160 158
236 253 258 257 248 314 354 4 356 5 20 74 109 116 90 91 112 131 144 155 158 155 152 148 158 161 162 163 163 162 161 162 165 168 172 178 183 190 194 194 198 197 195 194 188 184 179 176 175
266 267 269 276 280 268 3 355 357 354 11 36 61 122 117 113 119 129 140 155 154 157 153 154 163 166 167 168 169 168 169 170 174 178 182 189 194 200 205 208 209 212 212 209 204 199 195 192 190
276 269 259 259 269 281 353 344 346 341 19 35 360 134 136 137 134 133 139 145 151 157 154 158 164 169 173 175 176 177 179 181 185 188 192 199 205 209 212 219 211 221 225 222 219 216 212 209 206
256 255 262 279 287 309 335 330 338 339 60 73 46 51 114 134 136 137 140 144 152 157 156 161 164 170 181 184 174 185 187 191 198 201 201 209 220 219 212 223 210 228 235 233 231 228 224 220 216
241 263 294 320 307 310 319 322 329 291 177 109 89 95 122 140 143 147 151 155 159 163 166 169 170 174 186 195 179 200 201 193 209 212 209 218 226 235 240 196 219 240 242 239 235 234 231 231 229
248 278 314 307 310 308 308 317 327 291 307 58 118 132 141 145 145 147 150 154 158 163 167 165 164 176 185 195 198 209 215 206 216 220 222 231 240 239 243 239 226 237 241 244 233 228 234 236 239
255 274 291 299 311 306 306 310 343 10 20 46 114 137 142 145 146 144 145 149 153 160 161 159 162 172 189 210 209 218 224 227 235 228 236 235 240 250 252 254 257 252 250 251 254 243 241 245 244
250 277 292 295 300 313 308 339 56 50 52 87 115 130 137 136 132 130 135 141 146 156 161 157 161 171 177 200 245 235 267 276 264 262 252 256 256 257 262 261 262 261 259 254 253 252 248 248 247
286 286 285 289 298 297 203 100 98 63 83 103 116 122 126 124 126 127 129 134 146 156 155 153 157 157 157 179 213 276 295 287 267 270 274 261 256 264 269 261 256 257 259 267 266 261 257 255 254
271 273 263 244 242 171 201 127 79 81 109 111 112 111 116 115 120 122 124 130 133 131 127 135 139 137 143 162 197 198 284 290 283 260 247 261 264 267 259 259 257 264 265 260 258 261 258 254 253
252 256 256 105 40 185 251 148 102 111 121 114 114 117 118 113 111 109 111 117 119 121 122 125 129 129 138 137 142 118 92 56 295 278 210 201 246 261 266 272 272 277 267 266 264 261 262 259 258
232 282 316 100 69 257 254 119 124 131 133 121 121 124 122 115 107 108 112 116 119 125 128 125 123 127 129 135 135 129 133 137 177 188 155 128 255 265 268 277 289 273 273 272 271 270 272 268 266
325 318 318 343 50 241 210 138 133 134 134 126 125 126 120 115 110 110 112 115 121 127 130 130 128 125 135 137 142 145 139 150 180 173 110 294 276 280 286 271 281 282 274 271 272 276 269 273 273
301 301 311 9 48 229 146 142 137 139 137 132 136 137 128 121 120 120 131 134 136 134 136 134 131 130 135 135 155 166 185 215 237 258 21 283 293 294 284 291 280 277 278 280 277 272 266 264 271
278 285 292 144 117 240 145 143 142 151 158 150 154 154 148 143 140 147 154 151 149 148 150 150 148 143 154 134 145 287 313 281 291 306 298 281 283 282 277 286 284 278 280 268 268 263 275 274 264
279 298 298 241 158 172 185 170 164 160 165 160 159 160 159 161 161 160 162 164 163 162 168 162 154 164 180 183 203 207 233 259 263 276 267 281 283 278 290 286 288 290 278 274 274 269 263 271 269
292 329 266 212 221 210 243 219 151 166 170 170 172 174 170 173 174 167 169 174 175 172 170 171 174 180 192 219 254 277 289 298 308 298 302 294 279 286 287 283 283 283 283 282 271 267 269 264 268
334 134 208 224 238 232 234 273 129 160 170 169 172 173 174 178 179 178 183 182 181 177 176 178 175 186 205 233 254 274 287 298 299 301 295 293 285 279 281 282 284 281 278 280 284 283 272 268 267
157 174 186 213 236 245 27 285 131 155 168 163 169 172 178 182 183 185 186 182 184 184 188 189 181 186 200 229 259 282 296 300 304 300 301 292 289 282 280 284 285 280 281 279 273 272 264 264 270
219 253 254 239 240 53 113 271 89 133 157 167 170 176 179 183 189 190 190 185 184 183 180 180 175 184 199 235 273 287 292 287 284 294 298 299 298 296 300 300 292 287 284 280 276 269 270 266 262
245 278 302 315 332 28 168 258 111 141 157 170 175 177 179 185 189 192 189 183 179 166 162 165 166 191 226 269 295 301 293 292 303 310 307 300 299 304 310 296 288 286 283 280 276 272 265 261 262
251 271 322 285 285 285 111 130 151 165 180 184 186 187 189 189 184 180 174 169 166 160 153 154 163 181 235 298 306 292 296 306 309 303 286 294 299 296 297 293 289 285 282 279 276 270 270 267 262
304 261 243 282 308 301 135 177 146 174 188 187 189 191 188 183 177 171 165 159 153 149 145 140 146 148 293 293 300 305 299 297 298 297 306 301 297 295 292 289 289 286 282 277 272 270 263 262 260
193 213 267 286 304 310 335 78 99 170 183 188 190 189 184 183 178 171 164 158 156 157 162 173 200 262 289 304 307 304 301 305 301 297 298 297 294 294 289 287 286 285 282 279 274 272 273 266 265
260 266 249 281 291 294 303 81 129 167 179 190 188 182 179 179 174 169 165 166 172 179 190 208 265 292 300 306 303 302 305 304 304 305 305 301 296 292 291 290 287 284 282 280 275 273 272 269 267
Height
1525 1526 1527 1529 1522 1510 1508 1506 1503 1501 1499 1501 1502 1501 1500 1502 1505 1514 1517 1518 1521 1524 1525 1527 1530 1533 1536 1539 1541 1543 1545 1547 1549 1550 1551 1553 1554 1555 1556 1557 1558 1559 1560 1560 1561 1562 1562 1563 1563
1527 1528 1530 1526 1514 1510 1511 1505 1505 1503 1502 1502 1502 1503 1503 1508 1512 1515 1517 1519 1522 1525 1527 1529 1531 1535 1537 1540 1542 1544 1546 1548 1550 1551 1552 1554 1555 1556 1557 1558 1559 1560 1561 1561 1562 1563 1563 1564 1564
1528 1529 1529 1518 1512 1511 1510 1505 1505 1503 1503 1502 1502 1504 1507 1512 1515 1517 1518 1520 1524 1527 1529 1530 1533 1536 1539 1541 1544 1546 1547 1549 1551 1552 1554 1555 1556 1557 1558 1559 1560 1561 1562 1562 1563 1563 1564 1564 1565
1530 1530 1526 1516 1511 1508 1508 1506 1505 1503 1503 1503 1503 1506 1511 1516 1517 1518 1518 1522 1526 1529 1532 1532 1535 1538 1540 1542 1545 1547 1548 1550 1552 1553 1554 1556 1557 1558 1559 1560 1561 1562 1563 1563 1564 1564 1565 1565 1566
1530 1526 1516 1511 1509 1507 1506 1507 1505 1503 1503 1503 1503 1506 1513 1517 1516 1518 1520 1524 1528 1531 1533 1533 1536 1539 1541 1543 1546 1547 1549 1551 1552 1554 1555 1556 1557 1559 1560 1561 1562 1563 1563 1564 1565 1565 1566 1566 1567
1527 1521 1514 1510 1507 1507 1506 1507 1506 1504 1504 1504 1504 1507 1515 1518 1518 1520 1523 1526 1530 1533 1535 1535 1537 1540 1542 1544 1546 1548 1550 1551 1553 1554 1555 1556 1557 1559 1560 1561 1562 1563 1563 1564 1565 1565 1566 1567 1567
1525 1517 1512 1510 1510 1508 1507 1508 1507 1505 1505 1505 1506 1507 1515 1518 1519 1521 1523 1527 1531 1534 1537 1537 1539 1540 1543 1545 1547 1549 1550 1551 1553 1554 1555 1556 1557 1558 1559 1560 1561 1562 1563 1564 1564 1565 1566 1566 1567
1525 1518 1511 1509 1510 1508 1507 1508 1508 1506 1507 1509 1509 1507 1514 1518 1519 1521 1524 1528 1531 1535 1537 1539 1540 1542 1544 1545 1547 1548 1550 1551 1552 1553 1555 1556 1557 1558 1559 1560 1560 1561 1562 1563 1564 1564 1565 1565 1566
1526 1519 1511 1508 1509 1506 1507 1507 1507 1508 1508 1510 1511 1511 1514 1516 1518 1521 1524 1528 1531 1534 1537 1538 1540 1542 1544 1546 1547 1548 1550 1551 1552 1553 1554 1555 1557 1558 1558 1559 1559 1560 1561 1562 1562 1563 1563 1564 1565
1523 1515 1510 1510 1509 1507 1507 1507 1507 1506 1506 1509 1512 1514 1515 1517 1519 1522 1525 1528 1531 1534 1536 1538 1540 1542 1544 1547 1547 1549 1550 1551 1552 1553 1553 1554 1555 1556 1557 1557 1558 1559 1560 1560 1560 1561 1561 1562 1564
1519 1514 1511 1511 1510 1510 1508 1507 1508 1505 1505 1510 1513 1515 1517 1519 1521 1524 1526 1529 1531 1533 1536 1538 1539 1541 1544 1546 1547 1548 1550 1550 1551 1551 1552 1552 1553 1554 1555 1555 1556 1556 1557 1558 1559 1559 1559 1560 1562
1518 1515 1514 1512 1511 1510 1508 1508 1508 1509 1512 1514 1514 1516 1519 1521 1523 1525 1527 1529 1531 1533 1535 1537 1539 1540 1542 1544 1546 1546 1548 1548 1549 1550 1550 1550 1551 1551 1552 1552 1553 1554 1555 1555 1556 1556 1556 1557 1558
1516 1513 1513 1512 1510 1509 1509 1509 1511 1514 1516 1516 1517 1518 1520 1523 1525 1527 1527 1529 1531 1533 1534 1536 1538 1539 1541 1542 1544 1545 1546 1547 1547 1548 1548 1548 1548 1549 1549 1549 1550 1551 1552 1552 1552 1552 1553 1553 1554
1513 1512 1510 1509 1509 1509 1509 1510 1512 1516 1517 1518 1519 1520 1522 1524 1526 1527 1528 1530 1532 1533 1535 1536 1537 1539 1540 1542 1543 1543 1544 1544 1545 1545 1545 1545 1546 1546 1547 1547 1547 1548 1548 1548 1548 1549 1549 1549 1550
1513 1510 1505 1505 1507 1508 1508 1510 1514 1518 1519 1520 1521 1522 1524 1526 1527 1529 1530 1532 1533 1534 1536 1536 1537 1538 1539 1541 1541 1542 1543 1543 1543 1543 1543 1543 1544 1543 1543 1544 1544 1545 1544 1544 1544 1544 1545 1545 1545
1508 1505 1502 1502 1505 1507 1507 1510 1516 1519 1519 1521 1523 1524 1526 1527 1529 1530 1531 1532 1533 1534 1536 1537 1538 1538 1539 1540 1540 1541 1542 1542 1542 1541 1541 1541 1541 1541 1541 1542 1542 1541 1541 1541 1541 1541 1541 1541 1540
1501 1501 1501 1502 1505 1505 1504 1510 1517 1519 1520 1522 1524 1525 1527 1529 1530 1531 1532 1532 1533 1535 1536 1536 1537 1538 1539 1539 1539 1540 1540 1540 1541 1540 1540 1539 1539 1539 1539 1539 1539 1538 1538 1538 1538 1538 1537 1537 1536
1503 1501 1501 1502 1504 1505 1506 1510 1515 1519 1520 1522 1524 1526 1528 1529 1531 1531 1532 1533 1534 1535 1536 1537 1537 1538 1538 1539 1539 1540 1540 1540 1540 1539 1538 1538 1538 1537 1537 1537 1536 1536 1536 1535 1535 1534 1533 1533 1532
1502 1502 1503 1505 1506 1506 1508 1512 1515 1519 1521 1522 1524 1527 1528 1530 1531 1532 1533 1534 1535 1535 1536 1537 1537 1538 1538 1539 1540 1540 1540 1540 1539 1538 1537 1536 1536 1535 1535 1535 1533 1533 1533 1532 1532 1531 1530 1530 1529
1502 1503 1503 1506 1508 1508 1510 1514 1516 1519 1521 1522 1524 1526 1528 1530 1532 1533 1534 1534 1535 1536 1537 1537 1538 1538 1538 1539 1539 1539 1539 1539 1538 1537 1535 1534 1534 1533 1533 1532 1531 1531 1530 1528 1528 1527 1527 1527 1526
1500 1501 1502 1505 1508 1508 1510 1514 1515 1518 1521 1522 1524 1526 1527 1529 1531 1533 1534 1535 1535 1536 1537 1538 1537 1538 1538 1538 1539 1538 1538 1537 1537 1536 1535 1533 1532 1531 1530 1529 1528 1527 1527 1527 1525 1524 1524 1523 1523
1500 1499 1501 1504 1507 1507 1509 1515 1512 1513 1517 1520 1523 1525 1526 1529 1530 1532 1533 1534 1536 1536 1536 1536 1536 1537 1537 1537 1537 1537 1537 1536 1535 1534 1533 1531 1529 1528 1527 1526 1525 1524 1524 1523 1522 1522 1520 1520 1519
1500 1501 1500 1501 1502 1505 1506 1508 1511 1510 1514 1516 1519 1522 1525 1527 1529 1530 1532 1534 1535 1536 1536 1536 1535 1535 1535 1535 1535 1534 1534 1533 1533 1531 1529 1527 1527 1525 1524 1522 1521 1520 1520 1519 1517 1517 1516 1516 1516
1501 1501 1501 1500 1497 1510 1509 1509 1511 1507 1510 1512 1516 1520 1523 1526 1528 1529 1531 1532 1533 1534 1534 1534 1534 1533 1533 1533 1532 1531 1531 1529 1529 1527 1526 1525 1524 1522 1521 1519 1517 1516 1516 1515 1513 1512 1512 1511 1511
1499 1501 1506 1508 1508 1510 1507 1507 1508 1504 1506 1509 1513 1518 1521 1524 1526 1527 1529 1530 1531 1532 1532 1532 1532 1531 1531 1530 1530 1528 1527 1526 1525 1524 1524 1522 1521 1520 1517 1516 1513 1512 1511 1510 1509 1508 1508 1507 1506
1495 1497 1509 1517 1513 1506 1506 1507 1502 1503 1507 1511 1513 1516 1519 1522 1524 1525 1527 1528 1529 1529 1530 1530 1530 1529 1529 1528 1527 1525 1524 1524 1523 1521 1519 1518 1517 1516 1513 1511 1509 1508 1506 1505 1504 1504 1503 1502 1502
1495 1494 1493 1500 1501 1505 1501 1501 1500 1503 1506 1509 1512 1515 1517 1519 1521 1523 1524 1526 1527 1528 1528 1528 1528 1527 1526 1525 1524 1522 1521 1520 1519 1517 1515 1515 1513 1511 1509 1507 1505 1503 1502 1500 1499 1499 1498 1497 1497
1492 1492 1496 1499 1511 1511 1505 1503 1499 1501 1501 1504 1508 1511 1514 1517 1519 1521 1522 1524 1525 1525 1525 1525 1525 1524 1523 1522 1521 1521 1519 1517 1515 1513 1511 1509 1507 1505 1503 1502 1500 1498 1497 1495 1494 1494 1493 1492 1491
1495 1495 1494 1495 1498 1504 1509 1503 1489 1493 1496 1499 1503 1507 1511 1514 1516 1519 1521 1522 1522 1523 1523 1523 1523 1522 1521 1520 1518 1517 1516 1514 1512 1510 1508 1505 1503 1500 1498 1497 1495 1493 1492 1490 1489 1488 1487 1487 1486
1489 1490 1493 1501 1503 1500 1499 1499 1487 1491 1494 1497 1500 1505 1508 1512 1514 1517 1518 1519 1520 1521 1521 1521 1520 1519 1518 1517 1515 1514 1512 1510 1508 1507 1504 1501 1499 1496 1495 1492 1490 1489 1487 1486 1484 1483 1482 1481 1480